Location: Sulphur Springs (historical)
(38.1246°N, 122.1900°W)
Time: 08:34:12
(UTC+00:00)

CZ-2C R/B - Pass Details

Date: 29 October 2020
Orbit: 667 x 785 km, 98.2° (Epoch: 23 November)

Event Time Altitude Azimuth Distance (km) Brightness Sun altitude
Rises 13:10:26 0° 357° (N) 3,187 5.6 -16.6°
Reaches altitude 10° 13:13:14 10° 342° (NNW) 2,238 4.7 -16.1°
Enters shadow 13:16:06 20° 307° (NW) 1,629 3.7 -15.5°
